sat.trackr.live / text

‹ back to catalog

PROBA-3 OSC

NORAD 62258 · 2024-233C

PAYLOAD ACTIVE UNKNOWN

§ Identity

Operator
Country
ESA
Launch date
2024-12-05
Launch site
SRILR
Launch vehicle
Mass (kg)
RCS (m²)

External: N2YO · Heavens-Above · Gunter

§ Orbital elements

Epoch: 2026-09-20T07:37:38.008992Z

Period
1,179.57 min
Inclination
59.8007°
Eccentricity
0.7995376
Mean motion
1.22078031 rev/d
Perigee alt
1,035.1 km
Apogee alt
60,170.3 km
Semi-major
36,980.8 km
B*
0.0000e+0
RAAN
89.5587°
Arg perigee
208.1894°
Mean anomaly
62.3311°
Rev number
797

§ Raw data

PROBA-3 OSC1 62258U 24233C   26263.31780103 -.00000025  00000+0  00000+0 0  99952 62258  59.8007  89.5587 7995376 208.1894  62.3311  1.22078031  7977

JSON: /api/v1/satellites/62258 · /tle

For live sub-satellite position, see the globe view (requires WebGL).

§ Visibility from observer

Set your observer location to see the next 7 days of passes ≥ 10°. The values pass through the URL so the page stays shareable.

No JS? Fill the form by hand. The geolocation button needs JavaScript.